OBJECT BR, 62672

Orbit data source: Space-Track

You're viewing an Uncataloged Satellite

Recently launched and/or uncataloged satellites may have evolving metadata. Metadata may include but not limited to: Owner, Maufacturer, Bus, Motor, and Mission.

OBJECT BR, 62672 is a satellite in SSO that was launched on Tue, 14 Jan 2025 UTC via an FALCON 9 launch vehicle from the Air Force Western Test Range (AFWTR). Unknown objects in Earth's orbit typically refer to objects detected orbiting the Earth but have not yet been identified or cataloged. These objects could be anything from previously untracked satellites, spent rocket stages, debris from satellite collisions, or even natural meteoroids temporarily captured by Earth's gravity.

Loading next visibility...
Identifier
62672, 2025-009BR
Orbit
SSO
Country
Flag of TBDTBD
Related business
None
Manufacturer
Unknown
Mission
Operational Commercial Communications
Bus & Motor
Unknown
Mass
Unknown
Launch date (UTC)
2025-01-14 (1 year ago)
Launch vehicle
FALCON 9
Launch site
Air Force Western Test Range (AFWTR)
Object type
Unknown
Shape & HBR
Box + 2 Pan, 0.4 m
Radar Cross Section
0.014 m², Medium (>0.1 m² and < 1m²)

Expand to show TLE details & history
Last TLE update: 1 day ago

TLE from 1 day ago
0 OBJECT BR
1 62672U 25009BR  26034.47037025  .00005286  00000-0  23656-3 0  9998
2 62672  97.4066 115.6615 0006231  86.5611 273.6337 15.21690670116041
Epoch: 2026-02-03T11:17Z
TLE epoch observation values (Epoch: 2026-02-03T11:17:19.989Z)
Latitude
-0.0001°
Longitude
172.67738°
Altitude
503.564 km
Speed
7.613 km/s
True Right ascension
07h 42m 38s
True Declination
0° 00' 00"
Sunlit
Object was in full shadow at epoch
Visualization orbit readout
Latitude
Unknown
Longitude
Unknown
Altitude
Unknown
Speed
Unknown
Apparent Right ascension
Unknown
Apparent Declination
Unknown
Sunlit
N/A
Visualization observer readout
Local Sidereal Time
13:03:01
Azimuth
Unknown
Elevation
Unknown
Doppler factor
Unknown
Orbital elements
Apogee altitude
501.989 km
Perigee altitude
493.42 km
Semi-major axis
6,875.841 km
Eccentricity
0.00062
Inclination
97.4066°
RAAN
115.6615°
Arg. of periapsis
86.5611°
True anomaly
273.56244°
Mean anomaly
273.6337°
Eccentric anomaly
273.59807°
Mean motion
3.80675 °/min
Orbital period
94.57 mins
BSTAR
0.00023656
Loading maneuver chart data...
Computing Atmospheric mass density...
Loading historical data...
Loading historical data...
Loading historical data...
Loading historical data...
Loading historical data...
Loading historical data...
Loading historical data...

Documentation

Showing up to 5 results
|